Tracking 29892 objects as of 21-Nov-2024
HD Live streaming from Space Station
objects crossing your sky now

BREEZE-M DEB (TANK)

Track BREEZE-M DEB (TANK) now!
10-day predictions


NORAD ID: 32374
Int'l Code: 2007-058B
Perigee: 197.5 km
Apogee: 21,032.5 km
Inclination: 46.1 °
Period: 367.2 minutes
Semi major axis: 16985 km
RCS: 5.0489 m2 (large)
Launch date: December 9, 2007
Source: Commonwealth of Independent States (former USSR) (CIS)
Launch site: TYURATAM MISSILE AND SPACE COMPLEX (TTMTR)

Note: This is SATELLITE DEBRIS
Your satellite tracking list
Your tracking list is empty




NASA's NSSDC Master Catalog

Two Line Element Set (TLE):
1 32374U 07058B   24325.42095872  .00070560  66708-6  18520-2 0  9991
2 32374  46.1210   5.6949 6133000  84.7713 338.0490  3.92163922149740
Source of the keplerian elements: AFSPC